Tracking 29892 objects as of 21-Nov-2024
HD Live streaming from Space Station
objects crossing your sky now

SL-24 R/B

Track SL-24 R/B now!
10-day predictions


NORAD ID: 40303
Int'l Code: 2014-070F
Perigee: 492.0 km
Apogee: 1,933.2 km
Inclination: 97.2 °
Period: 109.5 minutes
Semi major axis: 7583 km
RCS: Unknown
Launch date: November 6, 2014
Source: Commonwealth of Independent States (former USSR) (CIS)
Launch site: Orenburg, Russia (OREN)

Note: This is a ROCKET BODY
Your satellite tracking list
Your tracking list is empty




NASA's NSSDC Master Catalog

Two Line Element Set (TLE):
1 40303U 14070F   24325.68949348  .00001181  00000-0  27931-3 0  9995
2 40303  97.1634  29.5533 0950206 209.8752 144.4750 13.14586055481257
Source of the keplerian elements: AFSPC